This is the latest recevied weather packets stored in our database for station/object KC5DAQ-26. If no packets are shown the sender has not sent any weather packets the latest 10 day(s).
| Time | Temp. | Humidity | Pressure | Rain* | Wind** | Luminosity | Snow |
|---|---|---|---|---|---|---|---|
| 1788456483 | 31.67° C | 78% | 1017.8 hPa | 0 mm | - | 148 W/m² | - |
| 1788456422 | 31.67° C | 77% | 1017.8 hPa | 0 mm | - | 155 W/m² | - |
| 1788456364 | 31.67° C | 78% | 1017.8 hPa | 0 mm | - | 172 W/m² | - |
| 1788456304 | 31.67° C | 77% | 1017.8 hPa | 0 mm | - | 200 W/m² | - |
| 1788456243 | 31.67° C | 77% | 1017.7 hPa | 0 mm | - | 246 W/m² | - |
| 1788456182 | 31.67° C | 78% | 1017.6 hPa | 0 mm | - | 723 W/m² | - |
| 1788456123 | 31.67° C | 78% | 1017.5 hPa | 0 mm | - | 638 W/m² | - |
| 1788456062 | 31.67° C | 78% | 1017.4 hPa | 0 mm | - | 631 W/m² | - |
| 1788456002 | 31.67° C | 78% | 1017.4 hPa | 0 mm | - | 482 W/m² | - |
| 1788455943 | 31.67° C | 78% | 1017.4 hPa | 0 mm | - | 556 W/m² | - |
| 1788455883 | 31.67° C | 79% | 1017.4 hPa | 0 mm | - | 521 W/m² | - |
| 1788455822 | 31.67° C | 79% | 1017.2 hPa | 0 mm | - | 531 W/m² | - |
| 1788455764 | 31.67° C | 79% | 1017.3 hPa | 0 mm | - | 485 W/m² | - |
| 1788455704 | 31.67° C | 80% | 1017.2 hPa | 0 mm | - | 469 W/m² | - |
| 1788455643 | 31.67° C | 79% | 1017.2 hPa | 0 mm | - | 441 W/m² | - |
| 1788455582 | 31.67° C | 79% | 1017.2 hPa | 0 mm | - | 415 W/m² | - |
| 1788455524 | 31.67° C | 78% | 1017.3 hPa | 0 mm | - | 415 W/m² | - |
| 1788455462 | 31.67° C | 79% | 1017.4 hPa | 0 mm | - | 410 W/m² | - |
| 1788455402 | 31.67° C | 78% | 1017.4 hPa | 0 mm | - | 399 W/m² | - |
| 1788455344 | 31.67° C | 79% | 1017.4 hPa | 0 mm | - | 371 W/m² | - |
| 1788455283 | 31.67° C | 78% | 1017.5 hPa | 0 mm | - | 378 W/m² | - |
| 1788455223 | 31.67° C | 80% | 1017.5 hPa | 0 mm | - | 399 W/m² | - |
| 1788455162 | 31.67° C | 80% | 1017.5 hPa | 0 mm | - | 427 W/m² | - |
| 1788455104 | 31.67° C | 80% | 1017.5 hPa | 0 mm | - | 454 W/m² | - |
| 1788455042 | 31.67° C | 80% | 1017.5 hPa | 0 mm | - | 454 W/m² | - |
* Rain latest hour (hover to see other rain measurements)
** Current wind speed in m/s (hover to see current wind gust speed)